GW6524 Weather Reports


time (UTC)temp
F
wind
direction
speed
knots
gust
knots
rain 1hr
in
rain 24hr
in
rain mn
in
humidity
%
barometer
mb
20260503200344 69 43 0.9 3.5 0.00 0.00 0.00 38 1017.2
20260503195842 71 347 1.7 1.7 0.00 0.00 0.00 36 1017.2
20260503195338 71 91 0.9 1.7 0.00 0.00 0.00 40 1017.4
20260503194835 72 43 1.7 2.6 0.00 0.00 0.00 34 1017.6
20260503194331 72 44 0.9 1.7 0.00 0.00 0.00 35 1017.6
20260503193828 71 24 0.9 0.9 0.00 0.00 0.00 38 1017.6
20260503193324 71 315 1.7 3.5 0.00 0.00 0.00 35 1017.8
20260503192820 71 21 0.9 1.7 0.00 0.00 0.00 39 1017.9
20260503192315 71 306 1.7 2.6 0.00 0.00 0.00 35 1018.0
20260503191811 71 351 0.9 1.7 0.00 0.00 0.00 35 1018.0
20260503191309 70 347 1.7 1.7 0.00 0.00 0.00 38 1018.2
20260503190806 70 330 1.7 2.6 0.00 0.00 0.00 37 1018.6
20260503190303 70 305 1.7 3.5 0.00 0.00 0.00 35 1018.5
20260503185800 70 329 0.9 1.7 0.00 0.00 0.00 40 1018.5
20260503185255 69 296 1.7 1.7 0.00 0.00 0.00 40 1018.7
20260503184755 69 40 0.9 1.7 0.00 0.00 0.00 37 1018.5
20260503184252 70 256 0.9 2.6 0.00 0.00 0.00 36 1018.8
20260503183748 69 27 1.7 1.7 0.00 0.00 0.00 39 1018.9
20260503183246 69 329 0.9 3.5 0.00 0.00 0.00 35 1018.9
20260503182743 70 22 3.5 6.1 0.00 0.00 0.00 33 1018.9
20260503182242 70 320 0.9 3.5 0.00 0.00 0.00 37 1018.8
20260503181738 70 349 0.9 1.7 0.00 0.00 0.00 37 1019.2
20260503181235 70 309 2.6 3.5 0.00 0.00 0.00 36 1019.0
20260503180731 69 22 0.9 1.7 0.00 0.00 0.00 36 1019.1
20260503180230 69 22 2.6 3.5 0.00 0.00 0.00 33 1019.0
20260503175726 69 4 1.7 2.6 0.00 0.00 0.00 37 1019.2
20260503175224 68 32 0.9 3.5 0.00 0.00 0.00 37 1019.1
20260503174720 70 58 0.9 2.6 0.00 0.00 0.00 33 1019.2
20260503174218 70 273 0.9 1.7 0.00 0.00 0.00 39 1019.2
20260503173713 69 298 1.7 2.6 0.00 0.00 0.00 37 1019.3
20260503173209 69 77 0.0 1.7 0.00 0.00 0.00 37 1019.3
20260503172706 69 44 0.0 2.6 0.00 0.00 0.00 31 1019.3
20260503172203 69 310 0.9 1.7 0.00 0.00 0.00 37 1019.5
20260503171700 69 349 0.9 2.6 0.00 0.00 0.00 37 1019.2
20260503171157 69 312 0.9 1.7 0.00 0.00 0.00 43 1019.3
20260503170654 69 25 1.7 1.7 0.00 0.00 0.00 40 1019.4
20260503170151 68 58 0.9 3.5 0.00 0.00 0.00 37 1019.4
20260503160112 66 60 0.0 0.9 0.00 0.00 0.00 42 1020.4
20260503150542 65 64 0.0 0.9 0.00 0.00 0.00 48 1020.6
20260503130932 52 111 0.0 0.9 0.00 0.00 0.00 83 1020.0
20260503130430 52 52 0.0 0.9 0.00 0.00 0.00 86 1020.1
20260503110332 48 35 0.0 0.0 0.00 0.00 0.00 98 1018.8
20260503100258 45 33 0.0 0.0 0.00 0.00 0.00 98 1018.1
20260503090217 46 33 0.0 0.0 0.00 0.00 0.00 97 1017.4
20260503081144 47 33 0.0 0.0 0.00 0.00 0.00 97 1016.7
20260503080640 47 33 0.0 0.0 0.00 0.00 0.00 97 1016.6
20260503080137 47 33 0.0 0.0 0.00 0.00 0.00 97 1016.7
20260503072614 48 33 0.0 0.0 0.00 0.00 0.00 97 1016.4
20260503072111 48 33 0.0 0.0 0.00 0.00 0.00 97 1016.4
20260503071608 48 33 0.0 0.0 0.00 0.00 0.00 97 1016.2
20260503071105 48 33 0.0 0.0 0.00 0.00 0.00 97 1016.4
20260503070601 48 33 0.0 0.0 0.00 0.00 0.00 97 1016.2
20260503055020 50 33 0.0 0.0 0.00 0.00 0.00 96 1016.3
20260503054516 50 33 0.0 0.0 0.00 0.00 0.00 95 1016.1
20260503054014 50 33 0.0 0.0 0.00 0.00 0.00 95 1015.9
20260503053512 50 33 0.0 0.0 0.00 0.00 0.00 95 1015.8
20260503053009 51 33 0.0 0.0 0.00 0.00 0.00 95 1016.0
20260503052506 51 33 0.0 0.0 0.00 0.00 0.00 95 1015.8
20260503052001 51 33 0.0 0.0 0.00 0.00 0.00 95 1015.7
20260503051457 51 32 0.0 0.0 0.00 0.00 0.00 94 1015.9
20260503050955 51 32 0.0 0.0 0.00 0.00 0.00 94 1016.0
20260503050450 52 32 0.0 0.0 0.00 0.00 0.00 93 1015.7
20260503045949 52 32 0.0 0.0 0.00 0.00 0.00 93 1015.9
20260503045446 52 32 0.0 0.0 0.00 0.00 0.00 93 1015.9
20260503044942 53 30 0.0 0.0 0.00 0.00 0.00 93 1015.8
20260503044439 53 30 0.0 0.9 0.00 0.00 0.00 92 1015.6
20260503043937 53 31 0.0 0.9 0.00 0.00 0.00 92 1015.4
20260503043433 54 35 0.0 0.0 0.00 0.00 0.00 92 1015.6
20260503042929 54 46 0.0 0.0 0.00 0.00 0.00 93 1015.7
20260503042426 54 46 0.0 0.0 0.00 0.00 0.00 93 1015.4
20260503041923 54 45 0.0 0.0 0.00 0.00 0.00 93 1015.5
20260503041420 54 45 0.0 0.0 0.00 0.00 0.00 93 1015.4
20260503040917 54 45 0.0 0.9 0.00 0.00 0.00 93 1015.3
20260503040414 54 47 0.0 0.0 0.00 0.00 0.00 92 1015.6
20260503035912 54 47 0.0 0.0 0.00 0.42 0.42 92 1015.4
20260503035409 54 47 0.0 0.0 0.00 0.42 0.42 92 1015.6
20260503034906 54 47 0.0 0.0 0.00 0.42 0.42 91 1015.3
20260503034403 54 63 0.0 0.0 0.00 0.42 0.42 91 1015.4
20260503033900 54 42 0.0 0.0 0.00 0.42 0.42 91 1015.5
20260503033358 54 46 0.0 0.0 0.00 0.42 0.42 91 1015.6
20260503032855 54 46 0.0 0.0 0.00 0.42 0.42 91 1015.5
20260503032354 54 46 0.0 0.0 0.00 0.42 0.42 91 1015.4
20260503031851 54 50 0.0 0.0 0.00 0.42 0.42 91 1015.3
20260503031349 54 55 0.0 0.0 0.00 0.42 0.42 91 1015.1
20260503030845 54 54 0.0 0.0 0.00 0.42 0.42 90 1015.3
20260503030341 54 40 0.0 0.9 0.00 0.42 0.42 90 1015.2
20260503025838 53 26 1.7 3.5 0.00 0.42 0.42 91 1015.2
20260503025336 53 67 0.0 0.9 0.00 0.42 0.42 93 1015.0
20260503024833 53 75 0.0 0.9 0.00 0.42 0.42 94 1015.3
20260503024329 53 47 0.0 0.0 0.00 0.42 0.42 95 1015.2
20260503023826 53 45 0.0 0.0 0.00 0.42 0.42 95 1015.2
20260503023323 53 45 0.0 0.0 0.00 0.42 0.42 95 1015.2
20260503022820 53 45 0.0 0.0 0.00 0.42 0.42 95 1015.1
20260503022320 53 45 0.0 0.0 0.00 0.42 0.42 95 1015.1
20260503021816 52 46 0.0 0.0 0.00 0.42 0.42 95 1014.6
20260503021313 52 46 0.0 0.0 0.00 0.42 0.42 94 1014.5
20260503020811 52 46 0.0 0.0 0.00 0.42 0.42 94 1014.4
20260503020308 53 46 0.0 0.0 0.00 0.42 0.42 94 1014.3
20260503015804 53 46 0.0 0.0 0.00 0.42 0.42 94 1014.3
20260503015302 53 46 0.0 0.0 0.00 0.42 0.42 94 1014.1
20260503014757 53 46 0.0 0.0 0.00 0.42 0.42 94 1014.1
20260503014255 53 46 0.0 0.0 0.00 0.42 0.42 94 1014.1
20260503013752 53 45 0.0 0.0 0.00 0.42 0.42 94 1013.8
20260503013249 52 45 0.0 0.0 0.00 0.42 0.42 94 1014.0
20260503012747 52 45 0.0 0.0 0.00 0.42 0.42 94 1014.0
20260503012244 52 45 0.0 0.0 0.00 0.42 0.42 93 1013.8
20260503011740 52 45 0.0 0.0 0.00 0.42 0.42 93 1013.4
20260503011238 53 45 0.0 0.0 0.00 0.42 0.42 93 1013.4
20260503010733 53 45 0.0 0.0 0.00 0.42 0.42 93 1013.6
20260503010231 52 45 0.0 0.0 0.00 0.42 0.42 93 1013.4
20260503005728 52 45 0.0 0.0 0.00 0.42 0.42 93 1013.4
20260503005225 52 45 0.0 0.0 0.00 0.42 0.42 92 1013.6
20260503004721 52 45 0.0 0.0 0.00 0.42 0.42 92 1013.4
20260503004220 52 45 0.0 0.0 0.00 0.42 0.42 92 1013.1
20260503003717 53 45 0.0 0.0 0.00 0.42 0.42 91 1013.1
20260503003214 53 45 0.0 0.0 0.00 0.42 0.42 90 1013.1
20260503002710 53 45 0.0 0.0 0.00 0.42 0.42 89 1013.0
20260503002207 53 45 0.0 0.0 0.00 0.42 0.42 88 1013.0
20260503001703 54 45 0.0 0.0 0.00 0.42 0.42 87 1012.7
20260503001200 54 45 0.0 0.0 0.00 0.42 0.42 86 1012.7
20260503000658 54 45 0.0 0.0 0.00 0.42 0.42 86 1012.9
20260503000155 55 45 0.0 0.0 0.00 0.42 0.42 85 1012.7
20260502235651 55 45 0.0 0.0 0.00 0.42 0.42 84 1012.7
20260502235149 55 45 0.0 0.0 0.00 0.42 0.42 83 1012.6
20260502234645 56 45 0.0 0.0 0.00 0.42 0.42 81 1012.4
20260502234143 56 46 0.0 0.0 0.00 0.42 0.42 81 1012.6
20260502233638 57 42 0.0 0.0 0.00 0.42 0.42 80 1012.5
20260502233135 57 24 0.0 0.9 0.00 0.42 0.42 80 1012.3
20260502232631 58 48 0.0 0.0 0.00 0.42 0.42 76 1012.0
20260502232129 58 47 0.0 0.9 0.00 0.42 0.42 73 1012.2
20260502231625 58 45 0.0 0.0 0.00 0.42 0.42 75 1012.1
20260502231124 58 45 0.0 0.0 0.00 0.42 0.42 74 1012.0
20260502230621 58 356 0.0 0.9 0.00 0.42 0.42 72 1011.8
20260502230120 59 68 0.0 0.9 0.00 0.42 0.42 71 1012.0
20260502225615 59 53 0.0 0.0 0.00 0.42 0.42 71 1012.2
20260502225112 59 356 0.9 0.9 0.00 0.42 0.42 69 1012.0
20260502224608 59 83 0.0 0.0 0.00 0.42 0.42 73 1012.2
20260502224105 59 17 0.0 0.9 0.00 0.42 0.42 71 1012.1
20260502223603 58 62 0.0 1.7 0.00 0.42 0.42 72 1012.2
20260502223102 58 31 0.0 0.0 0.00 0.42 0.42 72 1012.0
20260502222558 58 28 1.7 1.7 0.00 0.42 0.42 71 1012.1
20260502222054 59 27 0.0 1.7 0.00 0.42 0.42 70 1012.3
20260502221550 59 12 1.7 5.2 0.00 0.42 0.42 70 1012.4
20260502221048 59 8 3.5 5.2 0.00 0.42 0.42 69 1012.1
20260502220543 59 317 0.9 0.9 0.00 0.42 0.42 69 1012.0
20260502220040 59 99 0.9 1.7 0.00 0.42 0.42 70 1012.0
20260502215537 59 24 0.0 2.6 0.00 0.42 0.42 69 1012.2
20260502215034 58 345 0.9 2.6 0.00 0.42 0.42 70 1012.0
20260502214531 58 2 1.7 3.5 0.00 0.42 0.42 71 1012.3
20260502214029 58 302 1.7 2.6 0.00 0.42 0.42 69 1012.1
20260502213525 58 32 0.0 3.5 0.00 0.42 0.42 72 1012.0
20260502213023 58 333 0.0 0.9 0.00 0.42 0.42 73 1011.8
20260502212522 58 8 0.0 0.0 0.00 0.42 0.42 74 1012.1
20260502212019 58 297 1.7 2.6 0.00 0.42 0.42 70 1011.9
20260502211515 58 68 0.0 0.9 0.00 0.42 0.42 72 1012.0
20260502211012 58 296 0.9 1.7 0.00 0.42 0.42 70 1011.7
20260502210509 57 28 0.0 0.9 0.00 0.42 0.42 74 1011.9
20260502210006 57 7 0.9 1.7 0.00 0.42 0.42 72 1011.8
20260502205502 57 7 2.6 2.6 0.00 0.42 0.42 72 1011.9
20260502204959 58 54 0.9 3.5 0.00 0.42 0.42 73 1011.9
20260502204456 58 15 0.0 0.9 0.00 0.42 0.42 71 1011.9
20260502203954 58 21 0.0 1.7 0.00 0.42 0.42 72 1012.1
20260502203451 58 359 0.0 1.7 0.00 0.42 0.42 73 1012.1
20260502202947 58 1 3.5 3.5 0.00 0.42 0.42 72 1012.1
20260502202444 58 19 1.7 2.6 0.00 0.42 0.42 70 1012.0
20260502201942 58 302 1.7 3.5 0.00 0.42 0.42 70 1012.2
20260502201438 58 334 0.9 0.9 0.00 0.42 0.42 72 1012.1
20260502200935 58 358 0.9 1.7 0.00 0.42 0.42 70 1012.2